Location: Astronomy Club of Akron Observatory
(40.9700°N, 81.5606°W)
Time: 16:41:36
(UTC-04:00)

ISS - Pass Details

Date: 22 July 2018
Orbit: 402 x 408 km, 51.6° (Epoch: 22 July)

Event Time Altitude Azimuth Distance (km) Brightness Sun altitude
Rises 00:40:34 0° 296° (WNW) 2,324 0.6 -27.6°
Reaches altitude 10° 00:43:32 10° 326° (NW) 1,466 -0.2 -27.7°
Maximum altitude 00:45:11 13° 356° (N) 1,294 -0.4 -27.8°
Drops below altitude 10° 00:46:50 10° 26° (NNE) 1,468 -0.4 -27.8°
Sets 00:49:48 0° 56° (NE) 2,331 0.3 -27.9°
